[Date Prev][Date Next][Thread Prev][Thread Next] - [Date Index][Thread Index][Author Index]
2 Line ISS Keps 3-24
- Subject: [sarex] 2 Line ISS Keps 3-24
- From: "Dave Larsen PhD" <doc@xxxxxxxxxxx>
- Date: Tue, 24 Mar 2009 06:05:32 -0700
ISS
1 25544U 98067A 09082.57215278 .00177566 00000-0 13224-2 0 5213
2 25544 051.6414 025.6276 0009450 148.8471 198.8268 15.71651309592479
----
Sent via sarex@amsat.org. Opinions expressed are those of the author.
Not an AMSAT member? Join now to support the amateur satellite program!
Subscription settings: http://amsat.org/mailman/listinfo/sarex
AMSAT Home